Location: Bayshore Village Mobile Home Park
(26.6945°N, 81.8642°W)
Time: 23:26:07
(UTC+00:00)

Cosmos 2219 Rocket - Pass Details

Date: 17 June 2021
Orbit: 829 x 845 km, 71.0° (Epoch: 05 August)

Event Time Altitude Azimuth Distance (km) Brightness Sun altitude
Exits shadow 04:11:28 29° 302° (WNW) 1,511 3.8 -36.6°
Drops below altitude 10° 04:15:56 10° 354° (N) 2,466 5.3 -36.9°
Sets 04:18:43 0° 5° (N) 3,402 6.1 -37.2°
